This is the latest recevied weather packets stored in our database for station/object W8CWV-13. If no packets are shown the sender has not sent any weather packets the latest 10 day(s).
| Time | Temp. | Humidity | Pressure | Rain* | Wind** | Luminosity | Snow |
|---|---|---|---|---|---|---|---|
| 1777566794 | 20.56° C | 100% | 1017.8 hPa | - | - | - | - |
| 1777566225 | 19.44° C | 100% | 1018.7 hPa | - | - | - | - |
| 1777565641 | 19.44° C | 100% | 1018.7 hPa | - | - | - | - |
| 1777565068 | 17.78° C | 100% | 1019.5 hPa | - | - | - | - |
| 1777564495 | 18.33° C | 100% | 1019.5 hPa | - | - | - | - |
| 1777563924 | 20.56° C | 100% | 1019.9 hPa | - | - | - | - |
| 1777563345 | 20.56° C | 100% | 1019.5 hPa | - | - | - | - |
| 1777562768 | 19.44° C | 100% | 1020.1 hPa | - | - | - | - |
| 1777562192 | 20° C | 100% | 1020 hPa | - | - | - | - |
| 1777561617 | 18.33° C | 100% | 1020.5 hPa | - | - | - | - |
| 1777561050 | 18.89° C | 100% | 1021.1 hPa | - | - | - | - |
| 1777560470 | 18.89° C | 100% | 1022.6 hPa | - | - | - | - |
| 1777559895 | 16.11° C | 100% | 1023.3 hPa | - | - | - | - |
| 1777559324 | 16.67° C | 100% | 1023.4 hPa | - | - | - | - |
| 1777558759 | 17.78° C | 100% | 1023.5 hPa | - | - | - | - |
| 1777558180 | 18.33° C | 100% | 1023.1 hPa | - | - | - | - |
| 1777557605 | 17.22° C | 100% | 1023 hPa | - | - | - | - |
| 1777557026 | 15° C | 100% | 1022.5 hPa | - | - | - | - |
| 1777556457 | 15° C | 100% | 1022.8 hPa | - | - | - | - |
| 1777555884 | 16.67° C | 100% | 1022.8 hPa | - | - | - | - |
| 1777555317 | 17.22° C | 100% | 1022.6 hPa | - | - | - | - |
| 1777554740 | 17.22° C | 100% | 1022.5 hPa | - | - | - | - |
| 1777554165 | 15.56° C | 100% | 1022.5 hPa | - | - | - | - |
| 1777553594 | 16.67° C | 100% | 1021.9 hPa | - | - | - | - |
| 1777553021 | 16.67° C | 100% | 1021.5 hPa | - | - | - | - |
* Rain since midnight (hover to see other rain measurements)
** Current wind speed in m/s (hover to see current wind gust speed)